Location: Carbonear
(47.7333°N, 53.2500°W)
Time: 21:09:24
(UTC+00:00)

BEESAT - Pass Details

Date: 09 December 2022
Orbit: 697 x 707 km, 98.5° (Epoch: 07 February)

Event Time Altitude Azimuth Distance (km) Brightness Sun altitude
Rises 09:25:00 0° 101° (E) 3,100 ? -16.7°
Reaches altitude 10° 09:29:43 10° 58° (ENE) 2,189 ? -16.0°
Maximum altitude 09:30:11 10° 52° (NE) 2,180 ? -15.9°
Drops below altitude 10° 09:30:38 10° 47° (NE) 2,189 ? -15.8°
Sets 09:35:23 0° 4° (N) 3,116 ? -15.1°
